SCP
0 0 0 0 0 0 0 0 0 0 0 0 0 0 0 0 0 0 0 0 0 0 0 0 0 0 0 0 0 0 0 0 0 0 0 0 0 0
0 0 0 0 0 0 0 0 0 0 0 0 0 0 0 0 0 0 0 0 0 0 0 0 0 0 0 0 0 0 0 0 0 0 0 0 0 0
0 0 0 0 0 0 0 0 0 0 0 0 0 0 0 0 0 0 0 0 0 0 0 0 0 0 0 0 0 0 0 0 0 0 0 0 0 0
0 0 0 0 0 0 0 0 0 0 0 0 0 0 0 0 0 0 0 0 0 0 0 0 0 0 0 0 0 0 0 0 0 0 0 0 0 0
0 0 0 0 0 0 0 0 0 0 0 0 0 0 0 0 0 0 0 0 0 0 0 0 0 0 0 0 0 0 0 0 0 0 0 0 0 0
0 0 0 0 0 0 0 0 0 0 0 0 0 0 0 0 0 0 0 0 0 0 0 0 0 0 0 0 0 0 0 0 0 0 0 0 0 0
0 0 0 0 0 0 0 0 0 0 0 0 0 0 0 0 0 0 0 0 0 0 0 0 0 0 0 0 0 0 0 0 0 0 0 0 0 0
0 0 0 0 0 0 0 0 0 0 0 0 0 0 0 0 0 0 0 0 0 0 0 0 0 0 0 0 0 0 0 0 0 0 0 0 0 0
0 0 0 0 0 0 0 0 0 0 0 0 0 0 0 0 0 0 0 0 0 0 0 0 0 0 0 0 0 0 -0 -0 -0 0 0 0 0 0
0 0 0 0 0 0 0 0 0 0 0 0 0 0 0 0 0 0 0 0 0 0 0 0 0 0 0 0 0 0 0 -0 -0 -0 0 0 0 0
0 0 0 0 0 0 0 0 0 0 0 0 0 0 0 0 0 0 0 0 0 0 0 0 0 0 0 0 0 0 0 0 0 0 0 0 0 0
0 0 0 0 0 0 0 0 0 0 0 0 0 0 0 0 0 0 0 0 0 0 0 0 0 0 0 0 0 0 0 0 0 0 0 0 0 0
0 0 0 0 0 0 0 0 0 0 0 0 0 0 0 0 0 0 0 0 0 0 0 0 0 0 0 0 0 0 0 0 0 0 0 0 0 0
0 0 0 0 0 0 0 0 0 0 0 0 0 0 0 0 0 0 0 0 0 0 0 0 0 0 0 0 0 0 0 0 0 0 0 0 0 0
0 0 0 0 0 0 0 0 0 0 0 0 0 0 0 0 0 0 0 0 0 0 0 0 0 0 0 0 0 0 0 0 0 0 0 0 0 0
0 0 0 0 0 0 0 0 0 0 0 0 0 0 0 0 0 0 0 0 0 0 0 0 0 0 0 0 0 0 0 0 0 0 0 0 0 0
0 0 0 0 0 0 0 0 0 0 0 0 0 0 0 0 0 0 0 0 0 0 0 0 0 0 0 0 0 0 0 0 0 0 0 0 0 0
0 0 0 0 0 0 0 0 0 0 0 0 0 0 0 0 0 0 0 0 0 0 0 0 0 0 0 0 0 0 0 0 0 0 0 0 0 0
0 0 0 0 0 0 0 0 0 0 0 0 0 0 0 0 0 0 0 0 0 0 0 0 0 0 0 0 0 0 0 0 0 0 0 0 0 0
0 0 0 0 0 0 0 0 0 0 0 0 0 0 0 0 0 0 0 0 0 0 0 0 0 0 0 0 0 0 0 0 0 0 0 0 0 0
0 0 0 0 0 0 0 0 0 0 0 0 0 0 0 0 0 0 0 0 0 0 0 0 0 0 0 0 0 0 0 0 0 0 0 0 0 0
0 0 0 0 0 0 0 0 0 0 0 0 0 0 0 0 0 0 0 0 0 0 0 0 0 0 0 0 0 0 0 0 0 0 0 0 0 0
0 0 0 0 0 0 0 0 0 0 0 0 0 0 0 0 0 0 0 0 0 0 0 0 0 0 0 0 0 0 0 0 0 0 0 0 0 0
Wind_Speed
3 3 3 2 2 3 3 3 3 2 1 1 1 3 3 3 4 3 4 8 9 9 9 9 9 10 10 10 9 9 9 9 9 9 9 9 8 7
3 3 3 2 1 2 2 2 2 2 1 2 2 2 3 3 5 4 6 9 10 9 9 9 8 8 9 8 8 8 8 8 8 8 8 8 7 6
4 3 3 3 2 1 1 1 1 2 3 3 2 3 3 4 4 4 4 4 6 9 9 8 7 6 6 6 7 6 6 7 7 8 7 7 7 6
5 4 4 3 2 2 1 2 2 3 4 5 2 3 4 4 5 4 4 5 5 8 7 6 5 5 5 5 5 5 5 6 6 6 6 6 6 6
6 5 4 4 4 3 3 3 3 4 4 5 4 3 3 3 4 5 5 4 4 6 6 5 4 4 3 4 4 4 5 5 6 6 6 6 7 7
7 6 6 5 4 4 4 4 4 5 5 5 5 4 4 4 3 3 4 3 3 3 3 4 5 5 5 4 5 5 5 5 5 5 5 6 6 6
7 8 8 8 9 6 4 4 3 3 4 5 5 4 4 3 3 3 4 3 3 1 2 2 4 4 5 7 7 6 6 6 5 6 6 7 7 8
7 6 6 7 8 8 7 7 5 4 4 4 4 5 5 4 3 2 3 2 2 1 1 1 2 2 2 3 6 7 6 6 6 7 8 9 9 9
7 6 6 6 6 7 7 7 8 6 4 3 5 4 5 4 2 2 2 1 1 1 1 1 1 1 1 3 8 6 6 7 8 8 9 9 10 11
7 7 7 7 7 6 6 7 8 7 5 4 5 4 4 3 1 1 1 2 2 1 1 1 0 0 1 2 8 8 8 8 8 9 10 10 11 11
8 8 7 8 9 7 5 8 8 7 8 8 7 5 4 2 2 1 1 1 1 1 0 1 1 1 2 3 6 11 10 10 11 11 11 12 12 11
6 7 10 8 9 9 5 6 7 6 6 6 5 4 3 3 2 3 2 1 0 1 1 2 2 2 2 2 3 5 7 11 14 14 14 14 12 10
5 5 7 7 8 8 5 5 5 2 3 3 3 3 2 2 1 1 2 2 2 1 1 2 3 3 3 3 3 4 5 5 7 9 13 15 15 13
5 5 6 6 6 5 4 4 3 3 1 2 2 2 2 2 2 2 2 2 2 3 3 4 4 4 5 5 4 4 5 5 6 6 7 9 14 17
4 5 3 2 1 2 2 2 3 0 2 2 2 2 2 2 1 1 1 2 4 4 4 5 5 5 6 6 6 6 6 6 6 7 7 7 7 8
1 1 4 4 2 1 2 3 0 2 2 2 2 1 1 1 2 1 2 2 3 3 4 5 5 6 7 7 7 7 7 7 7 7 7 8 8 8
4 2 1 1 1 2 2 2 1 1 1 0 0 1 1 2 2 2 2 3 3 3 3 3 5 6 7 8 8 8 8 8 8 7 7 9 9 9
5 2 1 2 2 2 1 1 1 1 1 1 1 2 2 2 2 2 3 3 4 4 4 5 5 6 7 7 8 9 8 8 8 7 9 10 11 10
4 1 1 2 2 1 1 1 1 2 1 2 2 2 3 3 3 4 4 4 4 5 5 6 6 7 8 8 5 7 8 8 9 9 9 10 11 10
3 1 1 1 1 2 2 2 2 1 1 2 2 3 3 4 4 5 5 6 6 6 7 6 6 6 8 9 10 9 9 10 9 10 11 11 11 11
2 1 1 2 2 2 2 2 2 2 2 3 3 4 4 5 5 6 5 5 7 8 8 7 6 6 8 8 10 10 9 9 10 9 12 12 12 11
2 2 2 2 2 3 3 3 3 3 3 4 4 4 5 5 6 7 7 7 7 8 9 8 8 7 8 10 11 12 11 10 10 15 16 14 11 12
3 3 3 3 3 4 4 4 4 4 4 4 5 5 6 6 7 7 8 8 8 9 10 9 8 8 10 10 11 11 13 13 11 10 9 11 17 20
Wind_Direction
324 319 310 307 294 276 253 245 232 202 172 89 62 47 47 55 50 66 79 85 90 95 97 101 104 105 107 113 124 130 135 142 150 152 151 152 153 155
348 348 329 330 324 293 271 249 247 214 141 92 68 55 60 73 76 81 90 94 86 90 94 97 102 107 111 119 126 131 140 147 153 153 156 159 157 156
7 9 360 353 346 300 248 206 165 139 127 109 82 82 78 81 85 85 90 93 97 96 98 100 104 108 116 125 129 134 141 149 155 157 159 159 160 164
17 19 15 13 13 22 55 87 97 105 123 124 107 96 87 92 93 89 88 89 95 99 100 99 101 107 114 125 136 144 150 154 160 164 168 173 179 186
22 21 22 28 38 52 62 83 95 103 111 120 110 94 94 99 106 102 98 94 100 116 121 122 120 123 136 149 156 162 165 171 179 182 184 190 195 200
32 30 33 38 43 60 74 86 102 114 118 119 118 117 112 112 115 114 111 104 96 109 112 132 144 160 168 173 180 183 181 181 185 191 197 203 207 213
44 44 47 50 41 40 56 77 99 114 121 120 119 115 109 115 105 102 105 111 107 120 150 167 170 181 175 181 184 183 185 189 195 204 211 215 218 222
46 50 63 67 67 67 66 63 57 82 95 107 110 112 111 103 100 117 129 141 127 140 206 163 171 172 182 174 144 162 187 200 210 215 218 222 226 229
43 45 52 58 61 81 94 99 79 73 74 89 100 99 108 108 110 115 96 72 80 119 224 149 167 159 197 138 149 176 198 212 220 224 226 227 229 232
50 52 57 54 43 37 78 83 81 74 69 77 86 89 93 92 94 112 140 158 163 147 277 269 147 200 210 164 167 192 208 219 225 230 233 235 237 239
56 52 48 59 30 8 72 87 86 86 86 81 76 77 70 52 341 277 189 176 118 116 184 295 293 274 248 219 182 194 212 221 228 232 236 239 240 242
73 75 60 42 23 9 49 73 81 81 87 103 114 140 151 150 224 280 308 326 62 101 99 294 295 286 271 245 229 206 219 222 225 231 234 236 235 241
57 64 65 41 27 16 14 52 59 51 93 108 115 120 129 136 149 75 354 324 325 359 18 289 293 292 295 285 268 256 251 246 231 231 229 231 228 232
44 51 62 40 26 22 34 37 348 294 106 93 91 85 76 66 55 30 15 350 322 305 302 298 292 296 295 289 283 269 263 262 261 259 253 221 222 229
44 46 25 359 304 133 126 291 283 301 59 65 64 53 44 42 357 251 227 228 239 246 247 257 268 277 282 286 289 290 286 277 266 266 267 261 255 246
62 152 215 235 231 151 197 214 222 32 16 29 33 21 340 261 257 276 276 262 257 247 231 238 252 268 274 281 283 282 281 281 278 274 274 271 265 261
337 283 241 128 135 108 98 81 101 138 146 56 340 304 301 307 311 311 296 286 287 291 284 255 239 241 255 269 277 280 282 281 280 282 276 275 271 268
304 302 8 13 27 47 63 88 90 70 26 350 330 322 317 311 307 296 283 287 294 297 298 296 289 279 263 247 242 268 279 284 287 282 280 279 279 275
267 308 360 1 5 21 20 16 24 34 343 309 310 307 302 298 297 298 300 297 295 295 293 291 290 289 292 294 271 244 273 285 287 286 283 281 282 282
247 296 326 330 329 339 349 352 341 317 288 293 297 297 298 298 299 297 297 303 302 298 291 286 289 297 302 303 300 288 255 267 279 285 289 288 283 277
271 281 297 308 317 316 312 313 310 309 315 304 295 292 292 292 295 297 298 295 286 288 292 296 304 281 279 278 278 280 280 247 246 268 284 288 289 290
284 285 294 302 295 291 285 279 274 277 278 277 288 292 292 294 297 297 300 298 292 294 298 297 292 281 279 281 287 292 294 294 267 239 243 255 275 287
280 282 275 266 262 264 275 286 289 289 288 290 292 292 294 294 294 294 294 294 297 299 298 297 297 292 290 290 291 294 297 299 295 291 275 244 235 247